Weather Roundup
Issued by NWS

Home | Current Version | Previous Version | Text Only | Print | Product List | Glossary On
Versions: 1 2 3 4 5 6 7 8 9 10 11 12 13 14 15 16 17 18 19 20 21 22 23 24 25 26 27 28 29 30 31 32 33 34 35 36 37 38 39 40 41 42 43 44 45 46 47 48 49 50
086
NZUS93 KARX 301710
HRRWXR

CURRENT HOURLY OBSERVATIONS ACROSS
MUCH OF THE UPPER MISSISSIPPI VALLEY
NATIONAL WEATHER SERVICE LA CROSSE WI
1200 PM CDT SUN APR 30 2017


...SOUTHEAST MINNESOTA...


CITY           SKY/WX    TMP DP  RH WIND       PRES   REMARKS
ROCHESTER      CLOUDY    42  34  73 E21       29.93F
ROCHESTER/MAYO CLOUDY    42  33  71 NE10G17   29.94F
WINONA         LGT RAIN  43  36  75 E8        29.97S
AUSTIN         CLOUDY    43  36  75 NE16G23   29.88F
ALBERT LEA     CLOUDY    39  39 100 E23       29.87F WCI  29
DODGE CENTER   CLOUDY    43  36  75 E17       29.93F
PRESTON        CLOUDY    41  33  74 NE16G22   29.91F
OWATONNA       PTSUNNY   43  34  70 NE17G23   29.93F
FARIBAULT      LGT RAIN  41  37  87 NE9G17    29.96F
$$

...ELSEWHERE IN MINNESOTA...


CITY           SKY/WX    TMP DP  RH WIND       PRES   REMARKS
MINNEAPOLIS    LGT RAIN  43  33  68 N10G21    30.01S
INTNL FALLS    CLOUDY    50  22  33 E15       30.15F
DULUTH         CLOUDY    45  27  49 NE12      30.11S
RED WING       DRIZZLE   45  30  57 E12G21    29.97F
REDWOOD FALLS  LGT RAIN  41  33  73 NE14G24   29.96F
MANKATO        LGT RAIN  40  34  79 NE20G28   29.94F WCI  30
WORTHINGTON    LGT RAIN  38  35  89 NE28      29.87F WCI  26
FAIRMONT       LGT RAIN  39  35  86 NE20      29.91F WCI  29
$$

...SOUTHWEST WISCONSIN...


CITY           SKY/WX    TMP DP  RH WIND       PRES   REMARKS
LA CROSSE      CLOUDY    45  37  73 E8        29.96F
PRAIRIE DU CHI CLOUDY    43  37  77 NE8G18    29.89F
BOSCOBEL       CLOUDY    44  39  82 E8        29.92F
LONE ROCK      CLOUDY    43  39  86 E14       29.93F
PLATTEVILLE    CLOUDY    43  42  96 NE18G25   29.87F
FORT MC COY    CLOUDY    42  38  85 NE14      29.97S
CAMP DOUGLAS   CLOUDY    43  37  81 E13G20    29.97S
MAUSTON-NEW LI CLOUDY    42  38  85 E13       29.97R
VIROQUA        CLOUDY    40  38  89 E17G23    29.93F WCI  32
WIS DELLS      DRIZZLE   40  39  95 NE14      29.95F WCI  33
$$

...ELSEWHERE IN WISCONSIN...


CITY           SKY/WX    TMP DP  RH WIND       PRES   REMARKS
MILWAUKEE      LGT RAIN  42  41  96 NE16      29.92S VSB 3/4
MADISON        LGT RAIN  42  40  92 NE14      29.93R FOG
GREEN BAY      CLOUDY    41  40  96 NE21G28   30.02R FOG
EAU CLAIRE     CLOUDY    46  33  60 E12       29.98F
BLACK RVR FLS  CLOUDY    45  35  67 E7        29.98R
MEDFORD        CLOUDY    44  33  65 E18G24    29.98F
WAUSAU         CLOUDY    46  33  60 E14G23    29.97F
WIS RAPIDS     CLOUDY    42  38  85 E17       29.99F
MARSHFIELD     CLOUDY    44  35  70 E16       29.96F
RICE LAKE      DRIZZLE   45  31  57 NE9       30.03F
$$

...NORTHEAST IOWA...


CITY           SKY/WX    TMP DP  RH WIND       PRES   REMARKS
WATERLOO       CLOUDY    42  38  85 NE21      29.84F
DUBUQUE        CLOUDY    42  40  92 NE17G25   29.84F
DECORAH        CLOUDY    41  37  87 E15       29.89F
MASON CITY     CLOUDY    41  37  86 E18       29.88F
CHARLES CITY   MIX PCPN  41  39  93 E21G28    29.87F
OELWEIN        CLOUDY    43  41  93 E21G29    29.84F
$$

...ELSEWHERE IN IOWA...


CITY           SKY/WX    TMP DP  RH WIND       PRES   REMARKS
DES MOINES     DRIZZLE   43  40  89 E23G29    29.68F
IOWA CITY      CLOUDY    46  43  89 NE17G26   29.78F
FORT DODGE     CLOUDY    41  36  81 NE17G24   29.77F
MARSHALLTOWN   LGT RAIN  42  41  96 NE22      29.77F
CEDAR RAPIDS   CLOUDY    42  42 100 NE18      29.78F FOG
$$

...NORTHERN ILLINOIS...


CITY           SKY/WX    TMP DP  RH WIND       PRES   REMARKS
CHICAGO-OHARE  RAIN      45  43  93 N13       29.84R FOG
CHICAGO-MIDWAY CLOUDY    47  46  97 N12G17    29.82F FOG
MOLINE         CLOUDY    46  43  89 NE17      29.78F FOG
ROCKFORD       LGT RAIN  45  42  89 NE16      29.88F FOG
PEORIA         CLOUDY    48  47  96 NE12      29.75F FOG
$$

NOTE: "FAIR" INDICATES FEW OR NO CLOUDS BELOW 12,000 FEET WITH NO
SIGNIFICANT WEATHER AND/OR OBSTRUCTIONS TO VISIBILITY. WIND
SPEEDS ARE IN MILES-PER-HOUR.




USA.gov is the U.S. government's official web portal to all federal, state and local government web resources and services.